START_TIME,STEP,MOV.,M34,t_acc.,L5,t_acc.,L18,t_acc.,L14,t_acc.
1979-07-05 09:00:25.450 ,0,0,0.,12.0,0.,12.0,0.,12.0,0.,12.0
1979-07-05 09:00:37.450 ,0,0,0.,12.0,0.,12.0,0.,12.0,0.,12.0
1979-07-05 09:00:49.450 ,0,1,0.,12.0,0.,12.0,0.,12.0,0.,12.0
1979-07-05 09:01:01.450 ,0,1,0.,12.0,0.,12.0,0.,12.0,0.,12.0
1979-07-05 09:01:13.450 ,0,0,0.,12.0,0.,12.0,0.,12.0,0.,12.0
1979-07-05 09:01:25.450 ,0,0,0.,12.0,0.,12.0,0.,12.0,0.,12.0
1979-07-05 09:01:37.450 ,1,1,0.,12.0,0.,12.0,0.,12.0,0.,12.0
1979-07-05 09:01:49.450 ,1,1,0.,12.0,0.,12.0,0.,12.0,0.,12.0
1979-07-05 09:02:01.450 ,1,0,0.,12.0,0.,12.0,0.,12.0,0.,12.0
1979-07-05 09:02:13.450 ,1,0,0.,12.0,0.,12.0,0.,12.0,0.,12.0
1979-07-05 09:02:25.450 ,2,1,0.,12.0,0.,12.0,0.,12.0,0.,12.0
1979-07-05 09:02:37.450 ,2,1,0.,12.0,0.,12.0,0.,12.0,0.,12.0
1979-07-05 09:02:49.450 ,2,0,0.,12.0,0.,12.0,0.,12.0,0.,12.0
1979-07-05 09:03:01.450 ,2,0,0.,12.0,0.,12.0,0.,12.0,0.,12.0
1979-07-05 09:03:13.450 ,3,1,0.,12.0,0.,12.0,0.,12.0,0.,12.0
1979-07-05 09:03:25.450 ,3,1,0.,12.0,0.,12.0,0.,12.0,0.,12.0
1979-07-05 09:03:37.450 ,3,0,0.,12.0,0.,12.0,0.,12.0,0.,12.0
1979-07-05 09:03:49.450 ,3,0,0.,12.0,0.,12.0,0.,12.0,0.,12.0
1979-07-05 09:04:01.450 ,4,1,0.,12.0,0.,12.0,0.,12.0,0.,12.0
1979-07-05 09:04:13.450 ,4,1,0.,12.0,0.,12.0,1.,12.0,0.,12.0
1979-07-05 09:04:25.450 ,4,0,0.,12.0,0.,12.0,0.,12.0,0.,12.0
1979-07-05 09:04:37.450 ,4,0,0.,12.0,0.,12.0,0.,12.0,0.,12.0
1979-07-05 09:04:49.450 ,5,1,0.,12.0,0.,12.0,0.,12.0,0.,12.0
1979-07-05 09:05:01.450 ,5,1,0.,12.0,0.,12.0,0.,12.0,0.,12.0
1979-07-05 09:05:13.450 ,5,0,0.,12.0,0.,12.0,0.,12.0,0.,12.0
1979-07-05 09:05:25.450 ,5,0,0.,12.0,0.,12.0,0.,12.0,0.,12.0
1979-07-05 09:05:37.450 ,6,1,0.,12.0,0.,12.0,0.,12.0,0.,12.0
1979-07-05 09:05:49.450 ,6,1,0.,12.0,0.,12.0,0.,12.0,0.,12.0
1979-07-05 09:06:01.450 ,6,0,0.,12.0,0.,12.0,0.,12.0,0.,12.0
1979-07-05 09:06:13.450 ,6,0,1.,12.0,0.,12.0,0.,12.0,0.,12.0
1979-07-05 09:06:25.450 ,7,0,0.,12.0,0.,12.0,0.,12.0,0.,12.0
1979-07-05 09:06:37.450 ,7,0,0.,12.0,0.,12.0,0.,12.0,0.,12.0
1979-07-05 09:06:49.450 ,7,0,0.,12.0,0.,12.0,0.,12.0,0.,12.0
1979-07-05 09:07:01.450 ,7,0,0.,12.0,0.,12.0,0.,12.0,0.,12.0
1979-07-05 09:07:13.450 ,4,1,0.,12.0,0.,12.0,0.,12.0,0.,12.0
1979-07-05 09:07:25.450 ,4,1,1.,12.0,0.,12.0,0.,12.0,0.,12.0
1979-07-05 09:07:37.450 ,0,1,0.,12.0,0.,12.0,0.,12.0,0.,12.0
1979-07-05 09:07:49.450 ,0,1,0.,12.0,0.,12.0,0.,12.0,0.,12.0
1979-07-05 09:08:01.450 ,3,1,0.,12.0,0.,12.0,0.,12.0,0.,12.0
1979-07-05 09:08:13.450 ,3,1,0.,12.0,0.,12.0,0.,12.0,0.,12.0
1979-07-05 09:08:25.450 ,7,1,0.,12.0,0.,12.0,0.,12.0,0.,12.0
1979-07-05 09:08:37.450 ,7,1,0.,12.0,0.,12.0,0.,12.0,0.,12.0
1979-07-05 09:08:49.450 ,4,1,0.,12.0,0.,12.0,0.,12.0,0.,12.0
1979-07-05 09:09:01.450 ,4,1,0.,12.0,0.,12.0,0.,12.0,0.,12.0
1979-07-05 09:09:13.450 ,0,1,0.,12.0,0.,12.0,0.,12.0,0.,12.0
1979-07-05 09:09:25.450 ,0,1,0.,12.0,0.,12.0,0.,12.0,0.,12.0
1979-07-05 09:09:37.450 ,3,1,0.,12.0,0.,12.0,0.,12.0,0.,12.0
1979-07-05 09:09:49.450 ,3,1,0.,12.0,0.,12.0,0.,12.0,0.,12.0
1979-07-05 09:10:01.450 ,7,1,0.,12.0,0.,12.0,0.,12.0,0.,12.0
1979-07-05 09:10:13.450 ,7,1,0.,12.0,0.,12.0,0.,12.0,0.,12.0
1979-07-05 09:10:25.450 ,4,1,0.,12.0,0.,12.0,0.,12.0,1.,12.0
1979-07-05 09:10:37.450 ,4,1,0.,12.0,0.,12.0,0.,12.0,0.,12.0
1979-07-05 09:10:49.450 ,0,1,0.,12.0,0.,12.0,0.,12.0,0.,12.0
1979-07-05 09:11:01.450 ,0,1,0.,12.0,0.,12.0,0.,12.0,0.,12.0
1979-07-05 09:11:13.450 ,3,1,0.,12.0,0.,12.0,0.,12.0,0.,12.0
1979-07-05 09:11:25.450 ,3,1,0.,12.0,0.,12.0,0.,12.0,0.,12.0
1979-07-05 09:11:37.450 ,0,0,0.,12.0,0.,12.0,0.,12.0,0.,12.0
1979-07-05 09:11:49.450 ,0,0,0.,12.0,0.,12.0,0.,12.0,0.,12.0
1979-07-05 09:12:01.450 ,4,1,0.,12.0,0.,12.0,0.,12.0,0.,12.0
1979-07-05 09:12:13.450 ,4,1,0.,12.0,0.,12.0,0.,12.0,0.,12.0
1979-07-05 09:12:25.450 ,0,1,0.,12.0,0.,12.0,0.,12.0,0.,12.0
1979-07-05 09:12:37.450 ,0,1,0.,12.0,0.,12.0,0.,12.0,0.,12.0
1979-07-05 09:12:49.450 ,3,1,0.,12.0,0.,12.0,0.,12.0,0.,12.0
1979-07-05 09:13:01.450 ,3,1,0.,12.0,0.,12.0,0.,12.0,0.,12.0
1979-07-05 09:13:13.450 ,7,1,0.,12.0,0.,12.0,0.,12.0,0.,12.0
1979-07-05 09:13:25.450 ,7,1,0.,12.0,0.,12.0,0.,12.0,0.,12.0
1979-07-05 09:13:37.450 ,4,1,0.,12.0,0.,12.0,0.,12.0,0.,12.0
1979-07-05 09:13:49.450 ,4,1,0.,12.0,0.,12.0,0.,12.0,0.,12.0
1979-07-05 09:14:01.450 ,0,1,0.,12.0,0.,12.0,0.,12.0,0.,12.0
1979-07-05 09:14:13.450 ,0,1,0.,12.0,0.,12.0,0.,12.0,0.,12.0
1979-07-05 09:14:25.450 ,3,1,0.,12.0,0.,12.0,0.,12.0,0.,12.0
1979-07-05 09:14:37.450 ,3,1,0.,12.0,0.,12.0,0.,12.0,0.,12.0
1979-07-05 09:14:49.450 ,7,1,0.,12.0,0.,12.0,0.,12.0,0.,12.0
1979-07-05 09:15:01.450 ,7,1,0.,12.0,0.,12.0,0.,12.0,0.,12.0
1979-07-05 09:15:13.450 ,4,1,0.,12.0,0.,12.0,0.,12.0,0.,12.0
1979-07-05 09:15:25.450 ,4,1,0.,12.0,0.,12.0,0.,12.0,0.,12.0
1979-07-05 09:15:37.450 ,0,1,0.,12.0,0.,12.0,0.,12.0,0.,12.0
1979-07-05 09:15:49.450 ,0,1,0.,12.0,0.,12.0,0.,12.0,0.,12.0
1979-07-05 09:16:01.450 ,3,1,0.,12.0,0.,12.0,0.,12.0,0.,12.0
1979-07-05 09:16:13.450 ,3,1,0.,12.0,0.,12.0,0.,12.0,0.,12.0
1979-07-05 09:16:25.450 ,7,1,0.,12.0,0.,12.0,0.,12.0,0.,12.0
1979-07-05 09:16:37.450 ,7,1,0.,12.0,0.,12.0,0.,12.0,0.,12.0
1979-07-05 09:16:49.450 ,4,1,0.,12.0,0.,12.0,0.,12.0,0.,12.0
1979-07-05 09:17:01.450 ,4,1,0.,12.0,0.,12.0,0.,12.0,0.,12.0
1979-07-05 09:17:13.450 ,0,1,0.,12.0,0.,12.0,0.,12.0,0.,12.0
1979-07-05 09:17:25.450 ,0,1,0.,12.0,0.,12.0,0.,12.0,0.,12.0
1979-07-05 09:17:37.450 ,0,0,0.,12.0,0.,12.0,0.,12.0,0.,12.0
1979-07-05 09:17:49.450 ,0,0,0.,12.0,0.,12.0,0.,12.0,1.,12.0
1979-07-05 09:18:01.450 ,0,0,0.,12.0,0.,12.0,0.,12.0,0.,12.0
1979-07-05 09:18:13.450 ,0,0,0.,12.0,0.,12.0,0.,12.0,0.,12.0
1979-07-05 09:18:25.450 ,5,1,0.,12.0,0.,12.0,0.,12.0,0.,12.0
1979-07-05 09:18:37.450 ,5,1,0.,12.0,0.,12.0,0.,12.0,0.,12.0
1979-07-05 09:18:49.450 ,5,0,0.,12.0,0.,12.0,0.,12.0,0.,12.0
1979-07-05 09:19:01.450 ,5,0,0.,12.0,0.,12.0,0.,12.0,0.,12.0
1979-07-05 09:19:13.450 ,4,1,0.,12.0,0.,12.0,0.,12.0,0.,12.0
1979-07-05 09:19:25.450 ,4,1,0.,12.0,0.,12.0,0.,12.0,0.,12.0
1979-07-05 09:19:37.450 ,4,0,0.,12.0,0.,12.0,0.,12.0,0.,12.0
1979-07-05 09:19:49.450 ,4,0,0.,12.0,0.,12.0,0.,12.0,0.,12.0
1979-07-05 09:20:01.450 ,3,1,0.,12.0,0.,12.0,0.,12.0,0.,12.0
1979-07-05 09:20:13.450 ,3,1,0.,12.0,0.,12.0,0.,12.0,0.,12.0
1979-07-05 09:20:25.450 ,3,0,0.,12.0,0.,12.0,0.,12.0,0.,12.0
1979-07-05 09:20:37.450 ,3,0,0.,12.0,0.,12.0,0.,12.0,0.,12.0
1979-07-05 09:20:49.450 ,2,1,0.,12.0,0.,12.0,0.,12.0,0.,12.0
1979-07-05 09:21:01.450 ,2,1,0.,12.0,0.,12.0,0.,12.0,0.,12.0
1979-07-05 09:21:13.450 ,2,0,0.,12.0,0.,12.0,0.,12.0,0.,12.0
1979-07-05 09:21:25.450 ,2,0,0.,12.0,0.,12.0,0.,12.0,0.,12.0
1979-07-05 09:21:37.450 ,1,1,0.,12.0,0.,12.0,0.,12.0,0.,12.0
1979-07-05 09:21:49.450 ,1,1,0.,12.0,0.,12.0,0.,12.0,0.,12.0
1979-07-05 09:22:01.450 ,1,0,0.,12.0,0.,12.0,0.,12.0,0.,12.0
1979-07-05 09:22:13.450 ,1,0,0.,12.0,0.,12.0,0.,12.0,0.,12.0
1979-07-05 09:22:25.450 ,0,1,0.,12.0,0.,12.0,0.,12.0,0.,12.0
1979-07-05 09:22:37.450 ,0,1,0.,12.0,0.,12.0,0.,12.0,0.,12.0
1979-07-05 09:22:49.450 ,0,0,0.,12.0,0.,12.0,0.,12.0,0.,12.0
1979-07-05 09:23:01.450 ,0,0,0.,12.0,0.,12.0,0.,12.0,0.,12.0
1979-07-05 09:23:13.450 ,0,1,0.,12.0,0.,12.0,0.,12.0,0.,12.0
1979-07-05 09:23:25.450 ,0,1,0.,12.0,0.,12.0,0.,12.0,0.,12.0
1979-07-05 09:23:37.450 ,0,0,0.,12.0,0.,12.0,0.,12.0,0.,12.0
1979-07-05 09:23:49.450 ,0,0,0.,12.0,0.,12.0,0.,12.0,0.,12.0
1979-07-05 09:24:01.450 ,1,1,0.,12.0,0.,12.0,0.,12.0,0.,12.0
1979-07-05 09:24:13.450 ,1,1,0.,12.0,0.,12.0,0.,12.0,0.,12.0
1979-07-05 09:24:25.450 ,1,0,0.,12.0,0.,12.0,0.,12.0,0.,12.0
1979-07-05 09:24:37.450 ,1,0,0.,12.0,0.,12.0,0.,12.0,0.,12.0
1979-07-05 09:24:49.450 ,2,1,0.,12.0,0.,12.0,0.,12.0,0.,12.0
1979-07-05 09:25:01.450 ,2,1,0.,12.0,0.,12.0,0.,12.0,0.,12.0
1979-07-05 09:25:13.450 ,2,0,0.,12.0,0.,12.0,0.,12.0,0.,12.0
1979-07-05 09:25:25.450 ,2,0,0.,12.0,0.,12.0,0.,12.0,0.,12.0
1979-07-05 09:25:37.450 ,3,1,0.,12.0,0.,12.0,0.,12.0,0.,12.0
1979-07-05 09:25:49.450 ,3,1,0.,12.0,0.,12.0,0.,12.0,0.,12.0
1979-07-05 09:26:01.450 ,3,0,0.,12.0,0.,12.0,0.,12.0,0.,12.0
1979-07-05 09:26:13.450 ,3,0,0.,12.0,0.,12.0,0.,12.0,0.,12.0
1979-07-05 09:26:25.450 ,4,1,0.,12.0,0.,12.0,0.,12.0,0.,12.0
1979-07-05 09:26:37.450 ,4,1,0.,12.0,0.,12.0,0.,12.0,0.,12.0
1979-07-05 09:26:49.450 ,4,0,0.,12.0,0.,12.0,0.,12.0,0.,12.0
1979-07-05 09:27:01.450 ,4,0,0.,12.0,0.,12.0,0.,12.0,0.,12.0
1979-07-05 09:27:13.450 ,5,1,0.,12.0,0.,12.0,0.,12.0,0.,12.0
1979-07-05 09:27:25.450 ,5,1,0.,12.0,0.,12.0,0.,12.0,0.,12.0
1979-07-05 09:27:37.450 ,5,0,0.,12.0,0.,12.0,0.,12.0,0.,12.0
1979-07-05 09:27:49.450 ,5,0,0.,12.0,0.,12.0,0.,12.0,0.,12.0
1979-07-05 09:28:01.450 ,6,1,0.,12.0,0.,12.0,0.,12.0,0.,12.0
1979-07-05 09:28:13.450 ,6,1,1.,12.0,0.,12.0,0.,12.0,0.,12.0
1979-07-05 09:28:25.450 ,6,0,0.,12.0,0.,12.0,0.,12.0,0.,12.0
1979-07-05 09:28:37.450 ,6,0,1.,12.0,0.,12.0,0.,12.0,0.,12.0
1979-07-05 09:28:49.450 ,7,1,0.,12.0,0.,12.0,0.,12.0,0.,12.0
1979-07-05 09:29:01.450 ,7,1,0.,12.0,0.,12.0,0.,12.0,0.,12.0
1979-07-05 09:29:13.450 ,7,0,0.,12.0,0.,12.0,0.,12.0,0.,12.0
1979-07-05 09:29:25.450 ,7,0,0.,12.0,0.,12.0,0.,12.0,0.,12.0
1979-07-05 09:29:37.450 ,7,1,0.,12.0,0.,12.0,0.,12.0,0.,12.0
1979-07-05 09:29:49.450 ,7,1,0.,12.0,0.,12.0,0.,12.0,0.,12.0
1979-07-05 09:30:01.450 ,7,0,0.,12.0,0.,12.0,0.,12.0,0.,12.0
1979-07-05 09:30:13.450 ,7,0,0.,12.0,0.,12.0,0.,12.0,0.,12.0
1979-07-05 09:30:25.450 ,6,1,0.,12.0,0.,12.0,0.,12.0,0.,12.0
1979-07-05 09:30:37.450 ,6,1,0.,12.0,0.,12.0,0.,12.0,0.,12.0
1979-07-05 09:30:49.450 ,6,0,0.,12.0,0.,12.0,0.,12.0,0.,12.0
1979-07-05 09:31:01.450 ,6,0,0.,12.0,0.,12.0,0.,12.0,0.,12.0
1979-07-05 09:31:13.450 ,5,1,0.,12.0,0.,12.0,0.,12.0,0.,12.0
1979-07-05 09:31:25.450 ,5,1,0.,12.0,0.,12.0,0.,12.0,0.,12.0
1979-07-05 09:31:37.450 ,5,0,0.,12.0,0.,12.0,0.,12.0,0.,12.0
1979-07-05 09:31:49.450 ,5,0,0.,12.0,0.,12.0,0.,12.0,0.,12.0
1979-07-05 09:32:01.450 ,4,1,0.,12.0,0.,12.0,0.,12.0,0.,12.0
1979-07-05 09:32:13.450 ,4,1,0.,12.0,0.,12.0,0.,12.0,0.,12.0
1979-07-05 09:32:25.450 ,4,0,0.,12.0,0.,12.0,0.,12.0,0.,12.0
1979-07-05 09:32:37.450 ,4,0,0.,12.0,0.,12.0,0.,12.0,0.,12.0
1979-07-05 09:32:49.440 ,3,1,0.,12.0,0.,12.0,0.,12.0,0.,12.0
1979-07-05 09:33:01.440 ,3,1,0.,12.0,0.,12.0,0.,12.0,0.,12.0
1979-07-05 09:33:13.440 ,3,0,0.,12.0,0.,12.0,0.,12.0,0.,12.0
1979-07-05 09:33:25.440 ,3,0,0.,12.0,0.,12.0,0.,12.0,0.,12.0
1979-07-05 09:33:37.440 ,2,1,0.,12.0,0.,12.0,0.,12.0,0.,12.0
1979-07-05 09:33:49.440 ,2,1,0.,12.0,0.,12.0,0.,12.0,0.,12.0
1979-07-05 09:34:01.440 ,2,0,0.,12.0,0.,12.0,0.,12.0,0.,12.0
1979-07-05 09:34:13.450 ,2,0,0.,12.0,0.,12.0,0.,12.0,0.,12.0
1979-07-05 09:34:25.450 ,1,1,0.,12.0,0.,12.0,0.,12.0,0.,12.0
1979-07-05 09:34:37.450 ,1,1,0.,12.0,0.,12.0,0.,12.0,0.,12.0
1979-07-05 09:34:49.450 ,1,0,0.,12.0,0.,12.0,0.,12.0,0.,12.0
1979-07-05 09:35:01.450 ,1,0,0.,12.0,0.,12.0,0.,12.0,0.,12.0
1979-07-05 09:35:13.450 ,0,1,0.,12.0,0.,12.0,0.,12.0,0.,12.0
1979-07-05 09:35:25.450 ,0,1,0.,12.0,0.,12.0,0.,12.0,0.,12.0
1979-07-05 09:35:37.450 ,0,0,0.,12.0,0.,12.0,0.,12.0,0.,12.0
1979-07-05 09:35:49.450 ,0,0,0.,12.0,0.,12.0,0.,12.0,0.,12.0
1979-07-05 09:36:01.450 ,0,1,0.,12.0,0.,12.0,0.,12.0,0.,12.0
1979-07-05 09:36:13.450 ,0,1,0.,12.0,0.,12.0,0.,12.0,0.,12.0
1979-07-05 09:36:25.450 ,0,0,0.,12.0,0.,12.0,0.,12.0,0.,12.0
1979-07-05 09:36:37.450 ,0,0,0.,12.0,0.,12.0,0.,12.0,0.,12.0
1979-07-05 09:36:49.450 ,1,1,0.,12.0,0.,12.0,0.,12.0,0.,12.0
1979-07-05 09:37:01.450 ,1,1,0.,12.0,0.,12.0,0.,12.0,0.,12.0
1979-07-05 09:37:13.450 ,1,0,0.,12.0,0.,12.0,0.,12.0,0.,12.0
1979-07-05 09:37:25.450 ,1,0,0.,12.0,0.,12.0,0.,12.0,0.,12.0
1979-07-05 09:37:37.450 ,2,1,0.,12.0,0.,12.0,0.,12.0,0.,12.0
1979-07-05 09:37:49.450 ,2,1,0.,12.0,0.,12.0,0.,12.0,0.,12.0
1979-07-05 09:38:01.450 ,2,0,0.,12.0,0.,12.0,0.,12.0,0.,12.0
1979-07-05 09:38:13.450 ,2,0,0.,12.0,0.,12.0,0.,12.0,0.,12.0
1979-07-05 09:38:25.450 ,3,1,0.,12.0,0.,12.0,0.,12.0,0.,12.0
1979-07-05 09:38:37.450 ,3,1,0.,12.0,0.,12.0,0.,12.0,0.,12.0
1979-07-05 09:38:49.450 ,3,0,0.,12.0,0.,12.0,0.,12.0,0.,12.0
1979-07-05 09:39:01.450 ,3,0,0.,12.0,0.,12.0,0.,12.0,0.,12.0
1979-07-05 09:39:13.450 ,4,1,0.,12.0,0.,12.0,0.,12.0,0.,12.0
1979-07-05 09:39:25.450 ,4,1,0.,12.0,0.,12.0,0.,12.0,0.,12.0
1979-07-05 09:39:37.450 ,4,0,0.,12.0,0.,12.0,0.,12.0,0.,12.0
1979-07-05 09:39:49.450 ,4,0,0.,12.0,0.,12.0,0.,12.0,0.,12.0
1979-07-05 09:40:01.450 ,5,1,0.,12.0,0.,12.0,0.,12.0,0.,12.0
1979-07-05 09:40:13.450 ,5,1,0.,12.0,0.,12.0,0.,12.0,0.,12.0
1979-07-05 09:40:25.450 ,5,0,0.,12.0,0.,12.0,0.,12.0,0.,12.0
1979-07-05 09:40:37.450 ,5,0,0.,12.0,0.,12.0,0.,12.0,0.,12.0
1979-07-05 09:40:49.450 ,6,1,0.,12.0,0.,12.0,0.,12.0,0.,12.0
1979-07-05 09:41:01.450 ,6,1,0.,12.0,0.,12.0,0.,12.0,0.,12.0
1979-07-05 09:41:13.450 ,6,0,0.,12.0,0.,12.0,0.,12.0,0.,12.0
1979-07-05 09:41:25.450 ,6,0,0.,12.0,0.,12.0,0.,12.0,0.,12.0
1979-07-05 09:41:37.450 ,7,1,0.,12.0,0.,12.0,0.,12.0,0.,12.0
1979-07-05 09:41:49.450 ,7,1,0.,12.0,0.,12.0,0.,12.0,0.,12.0
1979-07-05 09:42:01.450 ,7,0,0.,12.0,0.,12.0,0.,12.0,0.,12.0
1979-07-05 09:42:13.450 ,7,0,0.,12.0,0.,12.0,0.,12.0,0.,12.0
1979-07-05 09:42:25.450 ,7,1,0.,12.0,0.,12.0,0.,12.0,0.,12.0
1979-07-05 09:42:37.450 ,7,1,0.,12.0,0.,12.0,0.,12.0,0.,12.0
1979-07-05 09:42:49.450 ,7,0,0.,12.0,0.,12.0,0.,12.0,0.,12.0
1979-07-05 09:43:01.450 ,7,0,0.,12.0,0.,12.0,0.,12.0,0.,12.0
1979-07-05 09:43:13.450 ,6,1,0.,12.0,0.,12.0,0.,12.0,0.,12.0
1979-07-05 09:43:25.450 ,6,1,0.,12.0,0.,12.0,0.,12.0,0.,12.0
1979-07-05 09:43:37.450 ,6,0,0.,12.0,0.,12.0,0.,12.0,0.,12.0
1979-07-05 09:43:49.450 ,6,0,0.,12.0,0.,12.0,0.,12.0,0.,12.0
1979-07-05 09:44:01.450 ,5,1,0.,12.0,0.,12.0,0.,12.0,0.,12.0
1979-07-05 09:44:13.450 ,5,1,0.,12.0,0.,12.0,0.,12.0,0.,12.0
1979-07-05 09:44:25.450 ,5,0,0.,12.0,0.,12.0,0.,12.0,0.,12.0
1979-07-05 09:44:37.450 ,5,0,0.,12.0,0.,12.0,0.,12.0,0.,12.0
1979-07-05 09:44:49.450 ,4,1,0.,12.0,0.,12.0,0.,12.0,0.,12.0
1979-07-05 09:45:01.450 ,4,1,0.,12.0,0.,12.0,0.,12.0,0.,12.0
1979-07-05 09:45:13.450 ,4,0,0.,12.0,0.,12.0,0.,12.0,0.,12.0
1979-07-05 09:45:25.450 ,4,0,0.,12.0,0.,12.0,0.,12.0,0.,12.0
1979-07-05 09:45:37.450 ,3,1,0.,12.0,0.,12.0,0.,12.0,0.,12.0
1979-07-05 09:45:49.450 ,3,1,0.,12.0,0.,12.0,0.,12.0,0.,12.0
1979-07-05 09:46:01.450 ,3,0,0.,12.0,0.,12.0,0.,12.0,0.,12.0
1979-07-05 09:46:13.450 ,3,0,0.,12.0,0.,12.0,0.,12.0,0.,12.0
1979-07-05 09:46:25.450 ,2,1,0.,12.0,0.,12.0,0.,12.0,0.,12.0
1979-07-05 09:46:37.450 ,2,1,0.,12.0,0.,12.0,0.,12.0,0.,12.0
1979-07-05 09:46:49.450 ,2,0,0.,12.0,0.,12.0,0.,12.0,0.,12.0
1979-07-05 09:47:01.450 ,2,0,0.,12.0,0.,12.0,0.,12.0,0.,12.0
1979-07-05 09:47:13.450 ,1,1,0.,12.0,0.,12.0,0.,12.0,0.,12.0
1979-07-05 09:47:25.450 ,1,1,0.,12.0,0.,12.0,0.,12.0,0.,12.0
1979-07-05 09:47:37.450 ,1,0,0.,12.0,0.,12.0,0.,12.0,0.,12.0
1979-07-05 09:47:49.450 ,1,0,0.,12.0,0.,12.0,0.,12.0,0.,12.0
1979-07-05 09:48:01.450 ,0,1,0.,12.0,0.,12.0,0.,12.0,0.,12.0
1979-07-05 09:48:13.450 ,0,1,0.,12.0,0.,12.0,0.,12.0,0.,12.0
1979-07-05 09:48:25.450 ,0,0,0.,12.0,0.,12.0,0.,12.0,0.,12.0
1979-07-05 09:48:37.450 ,0,0,0.,12.0,0.,12.0,0.,12.0,0.,12.0
1979-07-05 09:48:49.450 ,0,1,0.,12.0,0.,12.0,0.,12.0,0.,12.0
1979-07-05 09:49:01.450 ,0,1,0.,12.0,0.,12.0,0.,12.0,0.,12.0
1979-07-05 09:49:13.450 ,0,0,0.,12.0,0.,12.0,0.,12.0,0.,12.0
1979-07-05 09:49:25.450 ,0,0,0.,12.0,0.,12.0,0.,12.0,0.,12.0
1979-07-05 09:49:37.450 ,1,1,0.,12.0,0.,12.0,0.,12.0,0.,12.0
1979-07-05 09:49:49.450 ,1,1,0.,12.0,0.,12.0,0.,12.0,0.,12.0
1979-07-05 09:50:01.450 ,1,0,0.,12.0,0.,12.0,0.,12.0,0.,12.0
1979-07-05 09:50:13.450 ,1,0,0.,12.0,0.,12.0,0.,12.0,0.,12.0
1979-07-05 09:50:25.450 ,2,1,0.,12.0,0.,12.0,0.,12.0,0.,12.0
1979-07-05 09:50:37.450 ,2,1,0.,12.0,0.,12.0,0.,12.0,0.,12.0
1979-07-05 09:50:49.450 ,2,0,0.,12.0,0.,12.0,0.,12.0,0.,12.0
1979-07-05 09:51:01.450 ,2,0,0.,12.0,0.,12.0,0.,12.0,0.,12.0
1979-07-05 09:51:13.450 ,3,1,0.,12.0,0.,12.0,0.,12.0,0.,12.0
1979-07-05 09:51:25.450 ,3,1,0.,12.0,0.,12.0,0.,12.0,0.,12.0
1979-07-05 09:51:37.450 ,3,0,0.,12.0,0.,12.0,0.,12.0,0.,12.0
1979-07-05 09:51:49.450 ,3,0,0.,12.0,0.,12.0,0.,12.0,0.,12.0
1979-07-05 09:52:01.450 ,4,1,0.,12.0,0.,12.0,0.,12.0,0.,12.0
1979-07-05 09:52:13.450 ,4,1,0.,12.0,0.,12.0,0.,12.0,0.,12.0
1979-07-05 09:52:25.450 ,4,0,0.,12.0,0.,12.0,0.,12.0,0.,12.0
1979-07-05 09:52:37.450 ,4,0,0.,12.0,0.,12.0,0.,12.0,0.,12.0
1979-07-05 09:52:49.450 ,5,1,0.,12.0,0.,12.0,0.,12.0,0.,12.0
1979-07-05 09:53:01.450 ,5,1,0.,12.0,0.,12.0,0.,12.0,0.,12.0
1979-07-05 09:53:13.450 ,5,0,0.,12.0,0.,12.0,0.,12.0,0.,12.0
1979-07-05 09:53:25.450 ,5,0,0.,12.0,0.,12.0,0.,12.0,0.,12.0
1979-07-05 09:53:37.450 ,6,1,0.,12.0,0.,12.0,0.,12.0,0.,12.0
1979-07-05 09:53:49.450 ,6,1,0.,12.0,0.,12.0,0.,12.0,0.,12.0
1979-07-05 09:54:01.450 ,6,0,0.,12.0,0.,12.0,0.,12.0,0.,12.0
1979-07-05 09:54:13.450 ,6,0,1.,12.0,0.,12.0,0.,12.0,0.,12.0
1979-07-05 09:54:25.450 ,7,0,0.,12.0,0.,12.0,0.,12.0,0.,12.0
1979-07-05 09:54:37.450 ,7,0,0.,12.0,0.,12.0,0.,12.0,0.,12.0
1979-07-05 09:54:49.450 ,7,0,0.,12.0,0.,12.0,0.,12.0,0.,12.0
1979-07-05 09:55:01.450 ,7,0,0.,12.0,0.,12.0,0.,12.0,0.,12.0
1979-07-05 09:55:13.440 ,4,1,0.,12.0,0.,12.0,0.,12.0,0.,12.0
1979-07-05 09:55:25.440 ,4,1,0.,12.0,0.,12.0,0.,12.0,0.,12.0
1979-07-05 09:55:37.440 ,0,1,0.,12.0,0.,12.0,0.,12.0,0.,12.0
1979-07-05 09:55:49.440 ,0,1,0.,12.0,0.,12.0,0.,12.0,0.,12.0
1979-07-05 09:56:01.440 ,3,1,0.,12.0,0.,12.0,0.,12.0,0.,12.0
1979-07-05 09:56:13.440 ,3,1,0.,12.0,0.,12.0,0.,12.0,0.,12.0
1979-07-05 09:56:25.440 ,7,1,0.,12.0,0.,12.0,0.,12.0,0.,12.0
1979-07-05 09:56:37.440 ,7,1,0.,12.0,0.,12.0,0.,12.0,0.,12.0
1979-07-05 09:56:49.440 ,4,1,0.,12.0,0.,12.0,0.,12.0,0.,12.0
1979-07-05 09:57:01.440 ,4,1,0.,12.0,0.,12.0,0.,12.0,0.,12.0
1979-07-05 09:57:13.440 ,0,1,0.,12.0,0.,12.0,0.,12.0,0.,12.0
1979-07-05 09:57:25.440 ,0,1,0.,12.0,0.,12.0,0.,12.0,0.,12.0
1979-07-05 09:57:37.440 ,3,1,0.,12.0,0.,12.0,0.,12.0,0.,12.0
1979-07-05 09:57:49.440 ,3,1,0.,12.0,0.,12.0,0.,12.0,0.,12.0
1979-07-05 09:58:01.440 ,7,1,0.,12.0,0.,12.0,0.,12.0,0.,12.0
1979-07-05 09:58:13.440 ,7,1,0.,12.0,0.,12.0,0.,12.0,0.,12.0
1979-07-05 09:58:25.440 ,4,1,0.,12.0,0.,12.0,0.,12.0,0.,12.0
1979-07-05 09:58:37.440 ,4,1,0.,12.0,0.,12.0,0.,12.0,0.,12.0
1979-07-05 09:58:49.440 ,0,1,0.,12.0,0.,12.0,0.,12.0,0.,12.0
1979-07-05 09:59:01.440 ,0,1,0.,12.0,0.,12.0,0.,12.0,0.,12.0
1979-07-05 09:59:13.440 ,3,1,0.,12.0,0.,12.0,0.,12.0,0.,12.0
1979-07-05 09:59:25.440 ,3,1,0.,12.0,0.,12.0,0.,12.0,0.,12.0
1979-07-05 09:59:37.440 ,7,1,0.,12.0,0.,12.0,0.,12.0,0.,12.0
1979-07-05 09:59:49.440 ,7,1,0.,12.0,0.,12.0,0.,12.0,0.,12.0
1979-07-05 10:00:01.440 ,4,1,0.,12.0,0.,12.0,0.,12.0,0.,12.0
1979-07-05 10:00:13.440 ,4,1,0.,12.0,0.,12.0,0.,12.0,0.,12.0
1979-07-05 10:00:25.440 ,0,1,0.,12.0,0.,12.0,0.,12.0,0.,12.0
1979-07-05 10:00:37.440 ,0,1,0.,12.0,0.,12.0,0.,12.0,0.,12.0
1979-07-05 10:00:49.440 ,3,1,0.,12.0,0.,12.0,0.,12.0,0.,12.0
1979-07-05 10:01:01.440 ,3,1,0.,12.0,0.,12.0,0.,12.0,0.,12.0
1979-07-05 10:01:13.440 ,7,1,0.,12.0,0.,12.0,0.,12.0,0.,12.0
1979-07-05 10:01:25.440 ,7,1,0.,12.0,0.,12.0,0.,12.0,0.,12.0
1979-07-05 10:01:37.440 ,4,1,0.,12.0,0.,12.0,0.,12.0,0.,12.0
1979-07-05 10:01:49.440 ,4,1,0.,12.0,0.,12.0,0.,12.0,0.,12.0
1979-07-05 10:02:01.440 ,0,1,0.,12.0,0.,12.0,0.,12.0,0.,12.0
1979-07-05 10:02:13.440 ,0,1,0.,12.0,0.,12.0,0.,12.0,0.,12.0
1979-07-05 10:02:25.440 ,3,1,0.,12.0,0.,12.0,0.,12.0,0.,12.0
1979-07-05 10:02:37.440 ,3,1,0.,12.0,0.,12.0,0.,12.0,0.,12.0
1979-07-05 10:02:49.440 ,7,1,0.,12.0,0.,12.0,0.,12.0,0.,12.0
1979-07-05 10:03:01.440 ,7,1,0.,12.0,0.,12.0,0.,12.0,0.,12.0
1979-07-05 10:03:13.440 ,4,1,0.,12.0,0.,12.0,0.,12.0,0.,12.0
1979-07-05 10:03:25.440 ,4,1,0.,12.0,0.,12.0,0.,12.0,0.,12.0
1979-07-05 10:03:37.440 ,0,1,0.,12.0,0.,12.0,0.,12.0,0.,12.0
1979-07-05 10:03:49.440 ,0,1,0.,12.0,0.,12.0,0.,12.0,0.,12.0
1979-07-05 10:04:01.440 ,3,1,0.,12.0,0.,12.0,0.,12.0,0.,12.0
1979-07-05 10:04:13.440 ,3,1,0.,12.0,0.,12.0,0.,12.0,0.,12.0
1979-07-05 10:04:25.440 ,7,1,0.,12.0,0.,12.0,0.,12.0,0.,12.0
1979-07-05 10:04:37.440 ,7,1,0.,12.0,0.,12.0,0.,12.0,0.,12.0
1979-07-05 10:04:49.440 ,4,1,0.,12.0,0.,12.0,0.,12.0,0.,12.0
1979-07-05 10:05:01.440 ,4,1,0.,12.0,0.,12.0,0.,12.0,0.,12.0
1979-07-05 10:05:13.440 ,0,1,0.,12.0,0.,12.0,0.,12.0,0.,12.0
1979-07-05 10:05:25.440 ,0,1,0.,12.0,0.,12.0,0.,12.0,0.,12.0
1979-07-05 10:05:37.440 ,0,0,0.,12.0,0.,12.0,0.,12.0,0.,12.0
1979-07-05 10:05:49.440 ,0,0,0.,12.0,0.,12.0,0.,12.0,0.,12.0
1979-07-05 10:06:01.440 ,0,0,0.,12.0,0.,12.0,0.,12.0,0.,12.0
1979-07-05 10:06:13.440 ,0,0,1.,12.0,0.,12.0,0.,12.0,0.,12.0
1979-07-05 10:06:25.440 ,5,1,0.,12.0,0.,12.0,0.,12.0,0.,12.0
1979-07-05 10:06:37.440 ,5,1,0.,12.0,0.,12.0,0.,12.0,0.,12.0
1979-07-05 10:06:49.440 ,5,0,0.,12.0,0.,12.0,0.,12.0,0.,12.0
1979-07-05 10:07:01.440 ,5,0,0.,12.0,0.,12.0,0.,12.0,0.,12.0
1979-07-05 10:07:13.440 ,4,1,0.,12.0,0.,12.0,0.,12.0,0.,12.0
1979-07-05 10:07:25.440 ,4,1,1.,12.0,0.,12.0,0.,12.0,0.,12.0
1979-07-05 10:07:37.440 ,4,0,0.,12.0,0.,12.0,0.,12.0,0.,12.0
1979-07-05 10:07:49.440 ,4,0,0.,12.0,0.,12.0,0.,12.0,0.,12.0
1979-07-05 10:08:01.440 ,3,1,0.,12.0,0.,12.0,0.,12.0,0.,12.0
1979-07-05 10:08:13.440 ,3,1,0.,12.0,0.,12.0,0.,12.0,0.,12.0
1979-07-05 10:08:25.440 ,3,0,0.,12.0,0.,12.0,0.,12.0,0.,12.0
1979-07-05 10:08:37.440 ,3,0,0.,12.0,0.,12.0,0.,12.0,0.,12.0
1979-07-05 10:08:49.440 ,2,1,0.,12.0,0.,12.0,0.,12.0,0.,12.0
1979-07-05 10:09:01.440 ,2,1,0.,12.0,0.,12.0,0.,12.0,0.,12.0
1979-07-05 10:09:13.440 ,2,0,0.,12.0,0.,12.0,0.,12.0,0.,12.0
1979-07-05 10:09:25.440 ,2,0,0.,12.0,0.,12.0,0.,12.0,0.,12.0
1979-07-05 10:09:37.440 ,1,1,0.,12.0,0.,12.0,0.,12.0,0.,12.0
1979-07-05 10:09:49.440 ,1,1,0.,12.0,0.,12.0,0.,12.0,0.,12.0
1979-07-05 10:10:01.440 ,1,0,0.,12.0,0.,12.0,0.,12.0,0.,12.0
1979-07-05 10:10:13.440 ,1,0,0.,12.0,0.,12.0,0.,12.0,0.,12.0
1979-07-05 10:10:25.440 ,0,1,0.,12.0,0.,12.0,0.,12.0,0.,12.0
1979-07-05 10:10:37.440 ,0,1,0.,12.0,0.,12.0,0.,12.0,0.,12.0
1979-07-05 10:10:49.440 ,0,0,0.,12.0,0.,12.0,0.,12.0,0.,12.0
1979-07-05 10:11:01.440 ,0,0,0.,12.0,0.,12.0,0.,12.0,0.,12.0
1979-07-05 10:11:13.440 ,0,1,0.,12.0,0.,12.0,0.,12.0,0.,12.0
1979-07-05 10:11:25.440 ,0,1,0.,12.0,0.,12.0,0.,12.0,0.,12.0
1979-07-05 10:11:37.440 ,0,0,0.,12.0,0.,12.0,0.,12.0,0.,12.0
1979-07-05 10:11:49.440 ,0,0,0.,12.0,0.,12.0,0.,12.0,0.,12.0
1979-07-05 10:12:01.440 ,1,1,0.,12.0,0.,12.0,0.,12.0,0.,12.0
1979-07-05 10:12:13.440 ,1,1,0.,12.0,0.,12.0,0.,12.0,0.,12.0
1979-07-05 10:12:25.440 ,1,0,0.,12.0,0.,12.0,0.,12.0,0.,12.0
1979-07-05 10:12:37.440 ,1,0,0.,12.0,0.,12.0,0.,12.0,0.,12.0
1979-07-05 10:12:49.440 ,2,1,0.,12.0,0.,12.0,0.,12.0,0.,12.0
1979-07-05 10:13:01.440 ,2,1,0.,12.0,0.,12.0,0.,12.0,0.,12.0
1979-07-05 10:13:13.440 ,2,0,0.,12.0,0.,12.0,0.,12.0,0.,12.0
1979-07-05 10:13:25.440 ,2,0,0.,12.0,0.,12.0,0.,12.0,0.,12.0
1979-07-05 10:13:37.440 ,3,1,0.,12.0,0.,12.0,0.,12.0,0.,12.0
1979-07-05 10:13:49.440 ,3,1,0.,12.0,0.,12.0,0.,12.0,0.,12.0
1979-07-05 10:14:01.440 ,3,0,0.,12.0,0.,12.0,0.,12.0,0.,12.0
1979-07-05 10:14:13.440 ,3,0,0.,12.0,0.,12.0,0.,12.0,0.,12.0
1979-07-05 10:14:25.440 ,4,1,0.,12.0,0.,12.0,0.,12.0,0.,12.0
1979-07-05 10:14:37.440 ,4,1,0.,12.0,0.,12.0,0.,12.0,0.,12.0
1979-07-05 10:14:49.440 ,4,0,0.,12.0,0.,12.0,0.,12.0,0.,12.0
1979-07-05 10:15:01.440 ,4,0,0.,12.0,0.,12.0,0.,12.0,0.,12.0
1979-07-05 10:15:13.440 ,5,1,0.,12.0,0.,12.0,0.,12.0,0.,12.0
1979-07-05 10:15:25.440 ,5,1,0.,12.0,0.,12.0,0.,12.0,0.,12.0
1979-07-05 10:15:37.440 ,5,0,0.,12.0,0.,12.0,0.,12.0,0.,12.0
1979-07-05 10:15:49.440 ,5,0,0.,12.0,0.,12.0,0.,12.0,0.,12.0
1979-07-05 10:16:01.440 ,6,1,0.,12.0,0.,12.0,0.,12.0,0.,12.0
1979-07-05 10:16:13.440 ,6,1,0.,12.0,0.,12.0,0.,12.0,0.,12.0
1979-07-05 10:16:25.440 ,6,0,0.,12.0,0.,12.0,0.,12.0,0.,12.0
1979-07-05 10:16:37.440 ,6,0,0.,12.0,0.,12.0,0.,12.0,0.,12.0
1979-07-05 10:16:49.440 ,7,1,0.,12.0,0.,12.0,0.,12.0,0.,12.0
1979-07-05 10:17:01.440 ,7,1,0.,12.0,0.,12.0,0.,12.0,0.,12.0
1979-07-05 10:17:13.440 ,7,0,0.,12.0,0.,12.0,0.,12.0,0.,12.0
1979-07-05 10:17:25.440 ,7,0,0.,12.0,0.,12.0,0.,12.0,0.,12.0